period_start,C,m1,H,J0,J1,J2,J3,J4,J5,JA,JB,JC,JD,JJ,JK,JN,#
2016-08-16 00:02:49,-0.00,0.43,0.00,23.84,28.60,31.48,14.52,44.17,1025.91,2032.12,3244.00,2989.99,3350.00,599.70,599.46,13.97,0000 0000 0000 0000 000000
2016-08-16 00:07:50,0.00,0.43,0.00,23.85,28.60,31.45,14.51,44.17,1025.91,2032.14,3243.92,2989.99,3349.98,599.95,599.72,14.02,0000 0000 0000 0000 000000
2016-08-16 00:12:52,0.03,0.43,0.00,23.80,28.60,31.46,14.55,44.24,1025.93,2032.16,3243.27,2989.99,3349.60,599.83,599.71,14.07,0000 0000 0000 0000 000000
2016-08-16 00:17:53,0.00,0.43,0.00,23.70,28.60,31.47,14.59,44.07,1026.01,2032.16,3243.00,2989.98,3349.09,600.12,600.12,14.12,0000 0000 0000 0000 000000
2016-08-16 00:22:54,0.01,0.43,0.00,23.76,28.61,31.49,14.55,44.20,1026.04,2032.18,3242.73,2989.91,3349.00,599.88,599.92,14.17,0000 0000 0000 0000 000000
2016-08-16 00:27:55,0.02,0.43,0.00,23.81,28.62,31.46,14.55,44.21,1026.11,2032.20,3242.13,2989.87,3348.96,599.99,600.07,14.22,0000 0000 0000 0000 000000
2016-08-16 00:32:57,0.01,0.43,0.00,23.83,28.62,31.45,14.59,44.24,1026.01,2032.18,3242.00,2989.84,3348.49,599.96,599.79,14.27,0000 0000 0000 0000 000000
2016-08-16 00:37:58,-0.00,0.43,0.00,23.73,28.62,31.47,14.58,44.14,1025.94,2032.15,3241.89,2989.65,3348.05,600.02,600.04,14.32,0000 0000 0000 0000 000000
2016-08-16 00:42:59,0.02,0.43,0.00,23.63,28.62,31.52,14.57,44.20,1025.91,2032.07,3241.11,2989.15,3347.98,599.85,600.10,14.37,0000 0000 0000 0000 000000
2016-08-16 00:48:01,0.01,0.43,0.00,23.64,28.62,31.54,14.59,44.34,1025.90,2032.14,3241.00,2989.08,3347.94,599.65,599.84,14.42,0000 0000 0000 0000 000000
2016-08-16 00:53:02,0.02,0.44,0.00,23.76,28.62,31.49,14.58,44.29,1025.90,2032.29,3240.81,2989.03,3347.43,599.92,599.85,14.47,0000 0000 0000 0000 000000
2016-08-16 00:58:03,0.01,0.44,0.00,23.62,28.62,31.53,14.55,44.42,1025.88,2032.27,3240.09,2989.00,3347.02,599.76,599.92,14.52,0000 0000 0000 0000 000000
2016-08-16 01:03:04,-0.01,0.44,0.00,23.72,28.62,31.55,14.60,44.40,1025.79,2032.20,3240.00,2989.00,3346.99,600.10,599.96,14.57,0000 0000 0000 0000 000000
2016-08-16 01:08:05,0.02,0.44,0.00,23.77,28.62,31.47,14.58,44.34,1025.84,2032.26,3239.96,2989.00,3346.93,599.81,599.75,14.62,0000 0000 0000 0000 000000
2016-08-16 01:13:06,0.04,0.44,0.00,23.74,28.64,31.46,14.56,44.42,1025.79,2032.60,3239.86,2989.00,3346.69,599.52,599.42,14.67,0000 0000 0000 0000 000000
2016-08-16 01:18:08,0.01,0.44,0.00,23.71,28.64,31.50,14.63,44.38,1025.77,2032.51,3239.20,2989.00,3346.10,600.33,600.29,14.72,0000 0000 0000 0000 000000
2016-08-16 01:23:09,-0.02,0.44,0.00,23.72,28.65,31.53,14.60,44.43,1025.83,2032.35,3239.01,2988.99,3346.00,599.91,600.00,14.77,0000 0000 0000 0000 000000
2016-08-16 01:28:10,0.04,0.44,0.00,23.74,28.65,31.53,14.62,44.45,1025.89,2032.61,3238.99,2988.99,3346.00,600.29,600.32,14.82,0000 0000 0000 0000 000000
2016-08-16 01:33:11,0.00,0.44,0.00,23.77,28.65,31.49,14.60,44.41,1025.89,2032.72,3238.98,2988.99,3345.98,600.13,600.02,14.87,0000 0000 0000 0000 000000
2016-08-16 01:38:12,-0.02,0.44,0.00,23.70,28.65,31.52,14.58,44.54,1025.90,2032.59,3238.89,2988.98,3345.80,600.23,600.32,14.92,0000 0000 0000 0000 000000
2016-08-16 01:43:14,0.03,0.44,0.00,23.67,28.65,31.56,14.60,44.56,1025.92,2032.61,3238.36,2988.98,3345.45,599.91,599.96,14.97,0000 0000 0000 0000 000000
2016-08-16 01:48:15,0.00,0.44,0.00,23.78,28.65,31.57,14.61,44.38,1025.91,2032.69,3238.12,2988.98,3345.14,600.19,600.10,15.02,0000 0000 0000 0000 000000
2016-08-16 01:53:16,0.00,0.44,0.00,23.78,28.67,31.53,14.63,44.51,1025.91,2032.67,3238.00,2988.97,3345.01,600.29,600.19,15.07,0000 0000 0000 0000 000000
2016-08-16 01:58:18,-0.02,0.44,0.00,23.67,28.67,31.57,14.57,44.48,1025.92,2032.31,3237.99,2988.94,3345.00,599.93,600.14,15.12,0000 0000 0000 0000 000000
2016-08-16 02:03:19,0.00,0.44,0.00,23.71,28.67,31.57,14.56,44.49,1025.91,2032.38,3237.94,2988.93,3344.98,599.63,599.66,15.17,0000 0000 0000 0000 000000
2016-08-16 02:08:21,0.01,0.44,0.00,23.78,28.67,31.57,14.56,44.45,1025.97,2032.39,3237.79,2988.94,3344.94,599.72,599.60,15.22,0000 0000 0000 0000 000000
2016-08-16 02:13:22,0.00,0.44,0.00,23.82,28.67,31.50,14.50,44.51,1026.04,2032.39,3237.29,2988.82,3344.58,599.79,599.72,15.27,0000 0000 0000 0000 000000
2016-08-16 02:18:23,0.00,0.44,0.00,23.75,28.67,31.53,14.53,44.55,1026.00,2032.27,3237.06,2988.71,3344.19,599.85,599.84,15.32,0000 0000 0000 0000 000000
2016-08-16 02:23:25,0.01,0.44,0.00,23.57,28.67,31.61,14.54,44.62,1025.99,2032.33,3237.00,2988.81,3344.04,599.82,600.09,15.37,0000 0000 0000 0000 000000
2016-08-16 02:28:26,-0.00,0.44,0.00,23.63,28.67,31.67,14.60,44.56,1026.07,2032.40,3237.00,2988.82,3344.01,599.94,600.36,15.42,0000 0000 0000 0000 000000
2016-08-16 02:33:27,-0.02,0.44,0.00,23.73,28.67,31.64,14.60,44.41,1026.13,2032.17,3236.99,2988.80,3344.00,599.95,600.14,15.47,0000 0000 0000 0000 000000
2016-08-16 02:38:28,0.01,0.44,0.00,23.81,28.67,31.53,14.59,44.42,1026.00,2032.23,3236.98,2988.76,3344.00,599.97,599.86,15.52,0000 0000 0000 0000 000000
2016-08-16 02:43:29,0.01,0.44,0.00,23.70,28.67,31.53,14.58,44.45,1025.96,2032.19,3236.85,2988.64,3343.99,599.98,600.10,15.57,0000 0000 0000 0000 000000
2016-08-16 02:48:31,-0.00,0.44,0.00,23.61,28.67,31.60,14.57,44.48,1025.95,2032.11,3236.36,2988.48,3343.90,600.03,600.31,15.62,0000 0000 0000 0000 000000
2016-08-16 02:53:32,0.01,0.44,0.00,23.70,28.67,31.67,14.67,44.33,1025.96,2032.14,3236.14,2988.50,3343.84,600.21,600.31,15.67,0000 0000 0000 0000 000000
2016-08-16 02:58:33,0.01,0.44,0.00,23.83,28.67,31.59,14.59,44.42,1025.94,2032.13,3236.05,2988.46,3343.55,600.12,599.93,15.72,0000 0000 0000 0000 000000
2016-08-16 03:03:34,0.00,0.44,0.00,23.76,28.67,31.53,14.59,44.35,1025.93,2032.12,3236.02,2988.31,3343.13,599.98,599.86,15.77,0000 0000 0000 0000 000000
2016-08-16 03:08:36,-0.01,0.44,0.00,23.71,28.67,31.59,14.51,44.42,1025.96,2032.04,3236.00,2988.44,3343.03,599.78,599.89,15.82,0000 0000 0000 0000 000000
2016-08-16 03:13:37,0.01,0.44,0.00,23.78,28.67,31.68,14.67,44.48,1026.00,2032.05,3236.00,2988.30,3343.01,599.94,599.88,15.87,0000 0000 0000 0000 000000
2016-08-16 03:18:38,0.00,0.44,0.00,23.85,28.67,31.55,14.61,44.42,1025.95,2032.06,3235.99,2988.19,3343.00,600.07,599.86,15.92,0000 0000 0000 0000 000000
2016-08-16 03:23:39,0.00,0.44,0.00,23.84,28.70,31.55,14.60,44.50,1025.92,2032.01,3235.94,2988.09,3343.00,600.14,599.75,15.97,0000 0000 0000 0000 000000
2016-08-16 03:28:41,0.00,0.44,0.00,23.75,28.70,31.60,14.65,44.49,1025.92,2032.01,3235.76,2988.06,3342.96,600.51,600.49,16.02,0000 0000 0000 0000 000000
2016-08-16 03:33:41,0.01,0.44,0.00,23.78,28.70,31.64,14.71,44.48,1025.93,2032.01,3235.20,2988.02,3342.86,600.34,600.31,16.08,0000 0000 0000 0000 000000
2016-08-16 03:38:43,0.01,0.45,0.00,23.81,28.70,31.69,14.61,44.50,1025.98,2032.00,3235.01,2988.00,3342.30,600.07,599.96,16.13,0000 0000 0000 0000 000000
2016-08-16 03:43:44,-0.00,0.45,0.00,23.82,28.70,31.59,14.67,44.47,1025.94,2032.00,3235.00,2988.00,3342.14,600.49,600.19,16.18,0000 0000 0000 0000 000000
2016-08-16 03:48:46,0.00,0.45,0.00,23.76,28.70,31.57,14.58,44.48,1025.91,2032.00,3235.00,2988.00,3342.02,600.12,600.10,16.23,0000 0000 0000 0000 000000
2016-08-16 03:53:47,0.00,0.45,0.00,23.80,28.70,31.63,14.60,44.52,1025.91,2032.00,3234.99,2988.01,3342.02,600.17,600.04,16.28,0000 0000 0000 0000 000000
2016-08-16 03:58:48,0.00,0.45,0.00,23.84,28.72,31.55,14.51,44.46,1025.91,2032.00,3234.98,2988.00,3342.00,599.75,599.50,16.33,0000 0000 0000 0000 000000
2016-08-16 04:03:49,0.00,0.45,0.00,23.88,28.72,31.52,14.61,44.45,1025.91,2032.00,3234.90,2988.00,3342.00,600.10,599.87,16.38,0000 0000 0000 0000 000000
2016-08-16 04:08:51,0.00,0.45,0.00,23.81,28.72,31.54,14.66,44.44,1025.90,2032.00,3234.93,2988.00,3342.00,600.47,600.46,16.43,0000 0000 0000 0000 000000
2016-08-16 04:13:52,0.01,0.45,0.00,23.76,28.73,31.59,14.60,44.51,1025.91,2032.00,3234.45,2988.00,3341.97,600.15,600.02,16.48,0000 0000 0000 0000 000000
2016-08-16 04:18:53,0.01,0.45,0.00,23.72,28.75,31.62,14.60,44.59,1025.90,2032.00,3234.02,2987.99,3341.68,600.22,600.23,16.53,0000 0000 0000 0000 000000
2016-08-16 04:23:54,0.00,0.45,0.00,23.78,28.75,31.58,14.61,44.62,1025.91,2032.00,3234.00,2987.94,3341.15,599.81,599.68,16.58,0000 0000 0000 0000 000000
2016-08-16 04:28:56,0.00,0.45,0.00,23.84,28.75,31.54,14.57,44.58,1025.90,2032.00,3234.00,2987.95,3341.07,600.13,599.93,16.63,0000 0000 0000 0000 000000
2016-08-16 04:33:57,0.00,0.45,0.00,23.84,28.77,31.56,14.58,44.57,1025.90,2031.99,3233.99,2987.92,3341.02,599.99,599.70,16.68,0000 0000 0000 0000 000000
2016-08-16 04:38:58,0.02,0.45,0.00,23.87,28.77,31.57,14.54,44.60,1025.90,2031.99,3233.46,2987.59,3341.00,599.84,599.56,16.73,0000 0000 0000 0000 000000
2016-08-16 04:43:59,0.00,0.45,0.00,23.89,28.77,31.56,14.56,44.61,1025.90,2031.99,3233.09,2987.29,3340.99,599.84,599.62,16.78,0000 0000 0000 0000 000000
2016-08-16 04:49:00,0.00,0.45,0.00,23.90,28.79,31.55,14.57,44.55,1025.90,2031.98,3233.01,2987.06,3340.90,599.69,599.41,16.83,0000 0000 0000 0000 000000
2016-08-16 04:54:01,0.01,0.45,0.00,23.91,28.80,31.56,14.56,44.54,1025.90,2031.99,3233.00,2987.01,3340.59,600.16,599.67,16.88,0000 0000 0000 0000 000000
2016-08-16 04:59:03,0.00,0.45,0.00,23.92,28.80,31.56,14.58,44.53,1025.90,2031.98,3233.00,2987.02,3340.27,599.79,599.40,16.93,0000 0000 0000 0000 000000
2016-08-16 05:04:04,0.00,0.45,0.00,23.87,28.80,31.61,14.59,44.55,1025.90,2031.98,3232.98,2987.00,3340.06,599.99,599.62,16.98,0000 0000 0000 0000 000000
2016-08-16 05:09:05,-0.00,0.45,0.00,23.95,28.80,31.58,14.68,44.50,1025.91,2031.94,3232.92,2987.00,3340.01,600.71,600.15,17.03,0000 0000 0000 0000 000000
2016-08-16 05:14:07,0.00,0.45,0.00,23.96,28.80,31.58,14.62,44.54,1025.92,2031.91,3232.76,2987.01,3340.00,600.10,599.58,17.08,0000 0000 0000 0000 000000
2016-08-16 05:19:08,0.00,0.45,0.00,23.98,28.80,31.56,14.53,44.48,1025.90,2031.91,3232.59,2987.00,3340.00,600.03,599.48,17.13,0000 0000 0000 0000 000000
2016-08-16 05:24:09,0.00,0.45,0.00,23.94,28.80,31.59,14.65,44.58,1025.91,2031.93,3232.62,2987.00,3340.00,600.36,599.97,17.18,0000 0000 0000 0000 000000
2016-08-16 05:29:10,-0.00,0.45,0.00,23.98,28.80,31.58,14.57,44.57,1025.90,2031.89,3232.52,2987.00,3340.00,600.22,599.47,17.23,0000 0000 0000 0000 000000
2016-08-16 05:34:11,0.00,0.45,0.00,24.01,28.81,31.56,14.64,44.58,1025.91,2031.85,3232.28,2987.01,3340.00,600.17,599.61,17.28,0000 0000 0000 0000 000000
2016-08-16 05:39:12,0.00,0.45,0.00,23.97,28.82,31.57,14.59,44.56,1025.90,2031.82,3232.13,2987.00,3340.00,600.07,599.57,17.33,0000 0000 0000 0000 000000
2016-08-16 05:44:13,0.00,0.45,0.00,23.96,28.82,31.57,14.59,44.59,1025.90,2031.87,3232.05,2987.00,3339.99,600.13,599.66,17.38,0000 0000 0000 0000 000000
2016-08-16 05:49:14,-0.02,0.45,0.00,23.97,28.82,31.56,14.59,44.65,1025.90,2031.78,3232.01,2987.00,3339.98,599.83,599.30,17.43,0000 0000 0000 0000 000000
2016-08-16 05:54:16,0.01,0.45,0.00,23.85,28.82,31.60,14.60,44.51,1025.90,2031.76,3232.01,2987.00,3339.97,600.08,599.93,17.48,0000 0000 0000 0000 000000
2016-08-16 05:59:17,0.01,0.45,0.00,23.97,28.82,31.55,14.58,44.52,1025.90,2031.82,3232.01,2987.00,3339.98,600.07,599.61,17.53,0000 0000 0000 0000 000000
2016-08-16 06:04:18,-0.02,0.45,0.00,24.00,28.82,31.56,14.58,44.58,1025.90,2031.65,3232.00,2987.00,3339.84,600.11,599.51,17.58,0000 0000 0000 0000 000000
2016-08-16 06:09:19,-0.02,0.45,0.00,24.02,28.82,31.56,14.55,44.52,1025.90,2031.34,3232.00,2987.00,3339.47,600.11,599.37,17.63,0000 0000 0000 0000 000000
2016-08-16 06:14:20,-0.00,0.45,0.00,24.03,28.82,31.56,14.61,44.44,1025.90,2031.23,3231.99,2987.00,3339.23,600.10,599.39,17.68,0000 0000 0000 0000 000000
2016-08-16 06:19:22,0.00,0.45,0.00,24.03,28.82,31.56,14.60,44.47,1025.90,2031.17,3231.97,2986.99,3339.06,600.14,599.53,17.73,0000 0000 0000 0000 000000
2016-08-16 06:24:23,-0.00,0.45,0.00,24.06,28.82,31.55,14.47,44.55,1025.89,2031.14,3231.85,2986.98,3339.02,599.83,599.15,17.78,0000 0000 0000 0000 000000
2016-08-16 06:29:24,-0.00,0.45,0.00,24.04,28.83,31.55,14.61,44.60,1025.88,2031.07,3231.74,2986.98,3339.01,600.04,599.47,17.83,0000 0000 0000 0000 000000
2016-08-16 06:34:25,0.00,0.45,0.00,24.05,28.83,31.56,14.55,44.64,1025.81,2031.11,3231.48,2986.99,3339.00,599.93,599.28,17.88,0000 0000 0000 0000 000000
2016-08-16 06:39:26,0.00,0.45,0.00,24.04,28.83,31.56,14.58,44.56,1025.63,2031.08,3231.12,2986.98,3339.00,600.17,599.50,17.93,0000 0000 0000 0000 000000
2016-08-16 06:44:28,-0.00,0.45,0.00,24.07,28.83,31.54,14.61,44.58,1025.48,2031.04,3231.05,2986.95,3339.00,600.12,599.21,17.98,0000 0000 0000 0000 000000
2016-08-16 06:49:30,-0.00,0.45,0.00,24.07,28.85,31.53,14.45,44.56,1025.44,2031.06,3231.02,2986.96,3339.00,599.59,598.59,18.03,0000 0000 0000 0000 000000
2016-08-16 06:54:31,0.00,0.45,0.00,24.08,28.85,31.53,14.55,44.52,1025.42,2031.04,3231.02,2986.95,3338.99,600.04,598.96,18.08,0000 0000 0000 0000 000000
2016-08-16 06:59:32,-0.00,0.45,0.00,24.10,28.85,31.53,14.55,44.55,1025.42,2031.06,3231.01,2986.94,3338.97,599.76,598.77,18.13,0000 0000 0000 0000 000000
2016-08-16 07:04:34,-0.00,0.45,0.00,24.14,28.85,31.53,14.57,44.58,1025.41,2031.08,3231.01,2986.95,3338.98,600.35,599.20,18.18,0000 0000 0000 0000 000000
2016-08-16 07:09:35,-0.00,0.45,0.00,24.12,28.85,31.52,14.54,44.47,1025.41,2031.04,3231.00,2986.95,3338.97,600.41,599.29,18.23,0000 0000 0000 0000 000000
2016-08-16 07:14:36,0.00,0.45,0.00,24.12,28.85,31.52,14.54,44.57,1025.41,2031.02,3231.00,2986.89,3338.88,599.94,598.78,18.28,0000 0000 0000 0000 000000
2016-08-16 07:19:38,-0.00,0.45,0.00,24.11,28.85,31.53,14.51,44.48,1025.41,2031.02,3231.00,2986.86,3338.70,599.83,598.79,18.33,0000 0000 0000 0000 000000
2016-08-16 07:24:39,0.03,0.45,0.00,24.14,28.85,31.52,14.60,44.48,1025.41,2031.01,3230.92,2986.13,3338.07,600.13,599.01,18.38,0000 0000 0000 0000 000000
2016-08-16 07:29:40,0.00,0.45,0.00,24.19,28.85,31.52,14.58,44.52,1025.41,2031.00,3230.47,2986.01,3338.00,599.99,598.78,18.43,0000 0000 0000 0000 000000
2016-08-16 07:34:41,0.00,0.45,0.00,24.22,28.85,31.51,14.60,44.58,1025.41,2031.00,3230.42,2986.00,3338.00,600.41,599.17,18.48,0000 0000 0000 0000 000000
2016-08-16 07:39:43,-0.00,0.45,0.00,24.24,28.85,31.51,14.53,44.52,1025.41,2031.00,3230.42,2986.02,3337.99,599.99,598.67,18.53,0000 0000 0000 0000 000000
2016-08-16 07:44:44,0.00,0.45,0.00,24.26,28.85,31.50,14.51,44.44,1025.41,2031.00,3230.07,2986.00,3337.99,600.06,598.68,18.58,0000 0000 0000 0000 000000
2016-08-16 07:49:45,0.00,0.45,0.00,24.29,28.85,31.49,14.49,44.52,1025.40,2031.00,3230.01,2986.00,3337.98,599.88,598.55,18.63,0000 0000 0000 0000 000000
2016-08-16 07:54:47,0.00,0.45,0.00,24.30,28.85,31.49,14.53,44.54,1025.40,2031.00,3230.03,2986.00,3337.98,599.89,598.46,18.68,0000 0000 0000 0000 000000
2016-08-16 07:59:48,0.00,0.45,0.00,24.31,28.86,31.49,14.50,44.54,1025.40,2031.00,3230.00,2986.00,3337.96,599.83,598.35,18.73,0000 0000 0000 0000 000000
2016-08-16 08:04:49,0.00,0.45,0.00,24.30,28.86,31.48,14.52,44.54,1025.40,2031.00,3230.00,2985.99,3337.72,600.02,598.62,18.78,0000 0000 0000 0000 000000
2016-08-16 08:09:50,0.01,0.45,0.00,24.28,28.86,31.50,14.56,44.38,1025.39,2031.00,3229.93,2985.94,3337.34,600.06,598.61,18.83,0000 0000 0000 0000 000000
2016-08-16 08:14:51,0.03,0.45,0.00,24.30,28.85,31.49,14.49,44.42,1025.38,2031.00,3229.25,2985.30,3337.01,599.95,598.41,18.88,0000 0000 0000 0000 000000
2016-08-16 08:19:53,0.00,0.45,0.00,24.30,28.85,31.49,14.51,44.37,1025.33,2031.00,3229.03,2985.16,3336.99,599.95,598.46,18.93,0000 0000 0000 0000 000000
2016-08-16 08:24:54,0.00,0.45,0.00,24.28,28.85,31.49,14.51,44.44,1025.13,2031.00,3229.01,2985.19,3336.98,599.95,598.45,18.98,0000 0000 0000 0000 000000
2016-08-16 08:29:55,0.00,0.45,0.00,24.28,28.85,31.47,14.55,44.49,1025.04,2031.00,3229.00,2985.10,3336.98,600.37,598.81,19.03,0000 0000 0000 0000 000000
2016-08-16 08:34:57,0.00,0.45,0.00,24.29,28.85,31.49,14.53,44.43,1025.08,2031.00,3229.00,2985.09,3336.97,599.57,598.01,19.08,0000 0000 0000 0000 000000
2016-08-16 08:39:58,-0.00,0.45,0.00,24.31,28.84,31.49,14.48,44.49,1025.00,2031.00,3228.99,2985.15,3336.98,599.77,598.00,19.13,0000 0000 0000 0000 000000
2016-08-16 08:44:59,0.00,0.45,0.00,24.28,28.82,31.48,14.43,44.33,1024.95,2031.00,3228.99,2985.16,3336.97,599.83,598.25,19.18,0000 0000 0000 0000 000000
2016-08-16 08:50:00,-0.00,0.45,0.00,24.28,28.82,31.47,14.51,44.36,1024.94,2031.00,3228.99,2985.20,3336.97,599.98,598.29,19.23,0000 0000 0000 0000 000000
2016-08-16 08:55:01,0.00,0.45,0.00,24.31,28.82,31.46,14.46,44.33,1024.93,2031.00,3228.97,2985.12,3336.93,599.76,598.02,19.28,0000 0000 0000 0000 000000
2016-08-16 09:00:02,-0.00,0.45,0.00,24.34,28.82,31.45,14.56,44.22,1024.95,2031.01,3228.96,2985.18,3336.92,600.08,598.34,19.33,0000 0000 0000 0000 000000
2016-08-16 09:05:03,0.00,0.45,0.00,24.31,28.81,31.46,14.50,44.33,1024.94,2031.00,3228.96,2985.20,3336.93,600.10,598.42,19.38,0000 0000 0000 0000 000000
2016-08-16 09:10:04,0.00,0.45,0.00,24.29,28.80,31.47,14.51,44.29,1024.94,2031.01,3228.91,2985.24,3336.85,599.87,598.17,19.43,0000 0000 0000 0000 000000
2016-08-16 09:15:05,0.01,0.45,0.00,24.28,28.80,31.46,14.46,44.30,1024.94,2031.02,3228.64,2985.17,3336.76,599.78,598.17,19.48,0000 0000 0000 0000 000000
2016-08-16 09:20:06,-0.02,0.45,0.00,24.27,28.80,31.45,14.47,44.38,1024.94,2031.01,3228.80,2985.47,3336.87,600.15,598.46,19.53,0000 0000 0000 0000 000000
2016-08-16 09:25:08,0.00,0.45,0.00,24.28,28.80,31.46,14.56,44.28,1024.93,2031.03,3228.70,2985.70,3336.93,600.36,598.66,19.58,0000 0000 0000 0000 000000
2016-08-16 09:30:09,-0.01,0.45,0.00,24.32,28.79,31.46,14.59,44.28,1024.94,2031.07,3228.85,2985.89,3336.94,600.29,598.46,19.63,0000 0000 0000 0000 000000
2016-08-16 09:35:10,0.01,0.45,0.00,24.31,28.77,31.46,14.46,44.30,1024.93,2031.08,3228.58,2985.88,3336.93,599.96,598.17,19.68,0000 0000 0000 0000 000000
2016-08-16 09:40:11,0.00,0.45,0.00,24.30,28.77,31.46,14.56,44.37,1024.93,2031.09,3228.28,2985.88,3336.91,600.02,598.30,19.73,0000 0000 0000 0000 000000
2016-08-16 09:45:13,0.00,0.45,0.00,24.30,28.77,31.44,14.51,44.42,1024.92,2031.10,3228.21,2985.86,3336.89,600.01,598.30,19.78,0000 0000 0000 0000 000000
2016-08-16 09:50:14,0.01,0.45,0.00,24.29,28.77,31.45,14.53,44.46,1024.92,2031.18,3228.13,2985.94,3336.92,599.91,598.17,19.83,0000 0000 0000 0000 000000
2016-08-16 09:55:16,-0.00,0.45,0.00,24.29,28.75,31.44,14.45,44.34,1024.92,2031.18,3228.07,2985.92,3336.84,600.01,598.36,19.88,0000 0000 0000 0000 000000
2016-08-16 10:00:17,-0.00,0.45,0.00,24.26,28.75,31.44,14.53,44.34,1024.92,2031.13,3228.02,2985.90,3336.75,600.05,598.40,19.93,0000 0000 0000 0000 000000
2016-08-16 10:05:18,0.01,0.45,0.00,24.25,28.75,31.45,14.45,44.39,1024.92,2031.22,3228.02,2985.94,3336.73,599.73,598.13,19.98,0000 0000 0000 0000 000000
2016-08-16 10:10:19,0.00,0.45,0.00,24.25,28.75,31.44,14.58,44.48,1024.92,2031.24,3228.01,2985.95,3336.64,600.11,598.48,20.03,0000 0000 0000 0000 000000
2016-08-16 10:15:21,0.01,0.46,0.00,24.24,28.74,31.42,14.53,44.45,1024.92,2031.34,3228.00,2985.96,3336.58,600.15,598.56,20.08,0000 0000 0000 0000 000000
2016-08-16 10:20:22,0.01,0.46,0.00,24.26,28.73,31.42,14.53,44.38,1024.92,2031.50,3228.00,2985.98,3336.69,600.04,598.34,20.13,0000 0000 0000 0000 000000
2016-08-16 10:25:23,0.02,0.46,0.00,24.27,28.72,31.43,14.48,44.44,1024.92,2031.65,3228.00,2985.98,3336.74,600.01,598.36,20.19,0000 0000 0000 0000 000000
2016-08-16 10:30:24,-0.01,0.46,0.00,24.27,28.72,31.43,14.53,44.42,1024.92,2031.69,3228.00,2985.97,3336.55,599.79,598.08,20.24,0000 0000 0000 0000 000000
2016-08-16 10:35:26,0.01,0.46,0.00,24.25,28.72,31.43,14.48,44.38,1024.92,2031.86,3228.00,2985.99,3336.63,600.11,598.44,20.29,0000 0000 0000 0000 000000
2016-08-16 10:40:27,0.00,0.46,0.00,24.25,28.72,31.41,14.51,44.44,1024.92,2031.94,3228.00,2985.99,3336.81,600.00,598.32,20.34,0000 0000 0000 0000 000000
2016-08-16 10:45:28,0.00,0.46,0.00,24.25,28.71,31.41,14.54,44.42,1024.92,2031.94,3228.00,2985.99,3336.76,600.15,598.45,20.39,0000 0000 0000 0000 000000
2016-08-16 10:50:30,0.00,0.46,0.00,24.24,28.70,31.42,14.49,44.51,1024.92,2031.96,3227.98,2985.98,3336.58,599.93,598.15,20.44,0000 0000 0000 0000 000000
2016-08-16 10:55:31,0.00,0.46,0.00,24.22,28.70,31.43,14.56,44.52,1024.92,2031.92,3227.91,2985.97,3336.10,600.15,598.44,20.49,0000 0000 0000 0000 000000
2016-08-16 11:00:32,0.00,0.46,0.00,24.21,28.70,31.41,14.51,44.45,1024.92,2031.93,3227.72,2985.98,3336.06,599.91,598.44,20.54,0000 0000 0000 0000 000000
2016-08-16 11:05:34,0.00,0.46,0.00,24.21,28.70,31.41,14.49,44.43,1024.92,2031.98,3227.58,2985.99,3336.14,599.89,598.42,20.59,0000 0000 0000 0000 000000
2016-08-16 11:10:35,0.00,0.46,0.00,24.18,28.70,31.41,14.53,44.42,1024.92,2031.99,3227.40,2985.99,3336.14,599.82,598.42,20.64,0000 0000 0000 0000 000000
2016-08-16 11:15:36,-0.00,0.46,0.00,24.17,28.69,31.43,14.57,44.51,1024.90,2031.99,3227.36,2985.99,3336.21,600.03,598.47,20.69,0000 0000 0000 0000 000000
2016-08-16 11:20:38,0.00,0.46,0.00,24.19,28.69,31.42,14.53,44.48,1024.86,2031.98,3227.03,2985.99,3336.04,600.16,598.69,20.74,0000 0000 0000 0000 000000
2016-08-16 11:25:39,0.00,0.46,0.00,24.20,28.68,31.43,14.49,44.51,1024.71,2031.99,3227.01,2985.98,3336.02,599.69,598.06,20.79,0000 0000 0000 0000 000000
2016-08-16 11:30:40,0.00,0.46,0.00,24.17,28.67,31.44,14.55,44.49,1024.62,2031.99,3227.01,2985.99,3336.01,599.80,598.12,20.84,0000 0000 0000 0000 000000
2016-08-16 11:35:41,0.00,0.46,0.00,24.17,28.67,31.42,14.53,44.38,1024.65,2031.99,3227.00,2985.98,3336.01,600.20,598.63,20.89,0000 0000 0000 0000 000000
2016-08-16 11:40:43,0.00,0.46,0.00,24.10,28.67,31.43,14.53,44.41,1024.56,2031.99,3227.00,2985.98,3336.00,599.95,598.51,20.94,0000 0000 0000 0000 000000
2016-08-16 11:45:44,0.00,0.46,0.00,24.03,28.67,31.42,14.58,44.52,1024.54,2031.99,3226.99,2985.98,3336.00,599.96,598.54,20.99,0000 0000 0000 0000 000000
2016-08-16 11:50:46,0.00,0.46,0.00,24.15,28.67,31.41,14.46,44.43,1024.47,2031.99,3226.98,2985.98,3336.00,599.67,598.09,21.04,0000 0000 0000 0000 000000
2016-08-16 11:55:47,0.00,0.46,0.00,24.19,28.67,31.40,14.56,44.50,1024.44,2031.99,3226.93,2985.98,3336.00,600.01,598.29,21.09,0000 0000 0000 0000 000000
2016-08-16 12:00:48,0.00,0.46,0.00,24.07,28.65,31.43,14.51,44.48,1024.43,2031.99,3226.86,2985.98,3336.00,599.48,598.01,21.14,0000 0000 0000 0000 000000
2016-08-16 12:05:49,0.01,0.46,0.00,24.04,28.65,31.41,14.51,44.42,1024.43,2031.99,3226.58,2985.97,3336.00,600.21,598.87,21.19,0000 0000 0000 0000 000000
2016-08-16 12:10:50,0.00,0.46,0.00,24.10,28.65,31.41,14.52,44.46,1024.43,2031.99,3226.11,2985.96,3335.99,599.99,598.30,21.24,0000 0000 0000 0000 000000
2016-08-16 12:15:52,0.00,0.46,0.00,24.01,28.65,31.44,14.59,44.44,1024.43,2031.99,3226.01,2985.88,3335.95,600.05,598.71,21.29,0000 0000 0000 0000 000000
2016-08-16 12:20:53,0.00,0.46,0.00,24.04,28.65,31.41,14.51,44.38,1024.42,2031.99,3226.00,2985.84,3335.95,600.19,598.76,21.34,0000 0000 0000 0000 000000
2016-08-16 12:25:54,0.00,0.46,0.00,24.06,28.65,31.40,14.46,44.33,1024.34,2031.99,3225.99,2985.70,3335.76,599.94,598.36,21.39,0000 0000 0000 0000 000000
2016-08-16 12:30:56,0.02,0.46,0.00,24.04,28.65,31.40,14.55,44.41,1024.29,2031.99,3225.98,2985.51,3335.44,599.93,598.42,21.44,0000 0000 0000 0000 000000
2016-08-16 12:35:57,-0.01,0.46,0.00,23.98,28.65,31.45,14.55,44.42,1024.22,2031.99,3225.97,2985.67,3335.39,600.09,598.63,21.49,0000 0000 0000 0000 000000
2016-08-16 12:40:58,0.01,0.46,0.00,23.99,28.64,31.43,14.58,44.31,1024.07,2031.99,3225.92,2985.56,3335.26,600.13,598.59,21.54,0000 0000 0000 0000 000000
2016-08-16 12:45:59,0.01,0.46,0.00,24.01,28.64,31.42,14.50,44.38,1023.97,2031.99,3225.67,2985.36,3335.05,599.66,598.01,21.59,0000 0000 0000 0000 000000
2016-08-16 12:51:00,0.00,0.46,0.00,24.03,28.64,31.42,14.43,44.38,1023.96,2031.99,3225.32,2985.19,3335.00,599.78,598.12,21.64,0000 0000 0000 0000 000000
2016-08-16 12:56:01,0.01,0.46,0.00,24.04,28.64,31.41,14.52,44.42,1023.95,2031.99,3225.18,2985.13,3335.00,600.05,598.26,21.69,0000 0000 0000 0000 000000